Time,TemperatureF,DewpointF,PressureIn,WindDirection,WindDirectionDegrees,WindSpeedMPH,WindSpeedGustMPH,Humidity,HourlyPrecipIn,Conditions,Clouds,dailyrainin,SoftwareType,DateUTC
2013-06-29 00:01:00,62.5,-26.0,30.16,SSW,203,0.0,0.4,1,0.00,,,0.00,WUHU216HW,2013-06-29 07:01:00,
2013-06-29 00:06:00,62.3,-26.1,30.16,SSW,203,0.0,0.4,1,0.00,,,0.00,WUHU216HW,2013-06-29 07:06:00,
2013-06-29 00:11:00,62.3,-26.1,30.16,SSW,203,0.0,0.4,1,0.00,,,0.00,WUHU216HW,2013-06-29 07:11:00,
2013-06-29 00:16:00,62.1,-26.2,30.16,SSW,203,0.0,0.4,1,0.00,,,0.00,WUHU216HW,2013-06-29 07:16:00,
2013-06-29 00:21:00,61.9,-26.3,30.16,SSW,203,0.4,0.4,1,0.00,,,0.00,WUHU216HW,2013-06-29 07:21:00,
2013-06-29 00:26:00,61.7,-26.5,30.16,SSW,203,0.0,0.4,1,0.00,,,0.00,WUHU216HW,2013-06-29 07:26:00,
2013-06-29 00:31:00,61.7,-26.5,30.16,SSW,203,0.0,0.0,1,0.00,,,0.00,WUHU216HW,2013-06-29 07:31:00,
2013-06-29 00:37:00,61.6,-26.5,30.16,SSW,203,0.0,0.0,1,0.00,,,0.00,WUHU216HW,2013-06-29 07:37:00,
2013-06-29 00:42:00,61.6,-26.5,30.17,SSW,203,0.0,0.4,1,0.00,,,0.00,WUHU216HW,2013-06-29 07:42:00,
2013-06-29 00:47:00,61.6,-26.5,30.16,South,180,0.7,0.7,1,0.00,,,0.00,WUHU216HW,2013-06-29 07:47:00,
2013-06-29 00:52:00,61.4,-26.7,30.16,South,180,0.0,0.7,1,0.00,,,0.00,WUHU216HW,2013-06-29 07:52:00,
2013-06-29 00:57:00,61.4,-26.7,30.17,South,180,0.2,0.2,1,0.00,,,0.00,WUHU216HW,2013-06-29 07:57:00,
2013-06-29 01:02:00,61.2,-26.8,30.16,South,180,0.4,0.7,1,0.00,,,0.00,WUHU216HW,2013-06-29 08:02:00,
2013-06-29 01:03:00,61.2,-26.8,30.16,South,180,0.7,0.7,1,0.00,,,0.00,WUHU216HW,2013-06-29 08:03:00,
2013-06-29 01:08:00,61.2,-26.8,30.16,NNE,23,0.4,1.1,1,0.00,,,0.00,WUHU216HW,2013-06-29 08:08:00,
2013-06-29 01:14:00,61.4,-26.7,30.17,NE,45,0.2,1.8,1,0.00,,,0.00,WUHU216HW,2013-06-29 08:14:00,
2013-06-29 01:19:00,61.4,-26.7,30.16,NNE,23,2.5,3.1,1,0.00,,,0.00,WUHU216HW,2013-06-29 08:19:00,
2013-06-29 01:24:00,61.6,-26.5,30.16,NNE,23,1.6,3.1,1,0.00,,,0.00,WUHU216HW,2013-06-29 08:24:00,
2013-06-29 01:29:00,61.6,-26.5,30.16,NNE,23,1.8,2.9,1,0.00,,,0.00,WUHU216HW,2013-06-29 08:29:00,
2013-06-29 01:34:00,61.7,-26.5,30.16,NE,45,1.3,1.8,1,0.00,,,0.00,WUHU216HW,2013-06-29 08:34:00,
2013-06-29 01:39:00,61.7,-26.5,30.16,NNE,23,2.9,2.9,1,0.00,,,0.00,WUHU216HW,2013-06-29 08:39:00,
2013-06-29 01:44:00,61.7,-26.5,30.16,North,0,3.1,3.1,1,0.00,,,0.00,WUHU216HW,2013-06-29 08:44:00,
2013-06-29 01:49:00,61.9,-26.3,30.16,NE,45,2.5,3.1,1,0.00,,,0.00,WUHU216HW,2013-06-29 08:49:00,
2013-06-29 01:54:00,62.1,-26.2,30.16,NNE,23,3.6,3.6,1,0.00,,,0.00,WUHU216HW,2013-06-29 08:54:00,
2013-06-29 01:59:00,62.3,-26.1,30.16,NNE,23,1.8,3.6,1,0.00,,,0.00,WUHU216HW,2013-06-29 08:59:00,
2013-06-29 02:04:00,62.3,-26.1,30.16,NNE,23,1.6,2.9,1,0.00,,,0.00,WUHU216HW,2013-06-29 09:04:00,
2013-06-29 02:10:00,62.5,-26.0,30.16,NE,45,2.5,2.5,1,0.00,,,0.00,WUHU216HW,2013-06-29 09:10:00,
2013-06-29 02:15:00,62.5,-26.0,30.16,NNE,23,2.0,2.5,1,0.00,,,0.00,WUHU216HW,2013-06-29 09:15:00,
2013-06-29 02:20:00,62.5,-26.0,30.16,NNE,23,1.8,2.5,1,0.00,,,0.00,WUHU216HW,2013-06-29 09:20:00,
2013-06-29 02:25:00,62.5,-26.0,30.16,NNE,23,2.2,3.1,1,0.00,,,0.00,WUHU216HW,2013-06-29 09:25:00,
2013-06-29 02:30:00,62.5,-26.0,30.16,NNE,23,1.1,3.1,1,0.00,,,0.00,WUHU216HW,2013-06-29 09:30:00,
2013-06-29 02:35:00,62.3,-26.1,30.16,NNE,23,1.1,2.0,1,0.00,,,0.00,WUHU216HW,2013-06-29 09:35:00,
2013-06-29 02:40:00,62.3,-26.1,30.17,NNE,23,1.1,1.1,1,0.00,,,0.00,WUHU216HW,2013-06-29 09:40:00,
2013-06-29 02:45:00,62.3,-26.1,30.17,NNE,23,0.9,1.1,1,0.00,,,0.00,WUHU216HW,2013-06-29 09:45:00,
2013-06-29 02:50:00,62.3,-26.1,30.17,NNE,23,0.0,1.1,1,0.00,,,0.00,WUHU216HW,2013-06-29 09:50:00,
2013-06-29 02:55:00,62.1,-26.2,30.16,NNE,23,0.9,0.9,1,0.00,,,0.00,WUHU216HW,2013-06-29 09:55:00,
2013-06-29 03:00:00,62.1,-26.2,30.16,NNE,23,1.8,1.8,1,0.00,,,0.00,WUHU216HW,2013-06-29 10:00:00,
2013-06-29 03:05:00,61.9,-26.3,30.16,NNE,23,0.2,2.7,1,0.00,,,0.00,WUHU216HW,2013-06-29 10:05:00,
2013-06-29 03:11:00,61.9,-26.3,30.16,NNE,23,0.4,2.7,1,0.00,,,0.00,WUHU216HW,2013-06-29 10:11:00,
2013-06-29 03:16:00,61.9,-26.3,30.16,NE,45,0.2,0.9,1,0.00,,,0.00,WUHU216HW,2013-06-29 10:16:00,
2013-06-29 03:21:00,61.9,-26.3,30.16,NE,45,0.0,1.1,1,0.00,,,0.00,WUHU216HW,2013-06-29 10:21:00,
2013-06-29 03:26:00,61.7,-26.5,30.16,NE,45,0.0,1.1,1,0.00,,,0.00,WUHU216HW,2013-06-29 10:26:00,
2013-06-29 03:31:00,61.6,-26.5,30.16,NNE,23,0.2,1.1,1,0.00,,,0.00,WUHU216HW,2013-06-29 10:31:00,
2013-06-29 03:36:00,61.6,-26.5,30.17,NNW,338,0.2,1.1,1,0.00,,,0.00,WUHU216HW,2013-06-29 10:36:00,
2013-06-29 03:41:00,61.4,-26.7,30.17,NNW,338,0.4,0.7,1,0.00,,,0.00,WUHU216HW,2013-06-29 10:41:00,
2013-06-29 03:46:00,61.4,-26.7,30.17,NNW,338,0.0,0.4,1,0.00,,,0.00,WUHU216HW,2013-06-29 10:46:00,
2013-06-29 03:51:00,61.4,-26.7,30.17,West,270,1.1,1.1,1,0.00,,,0.00,WUHU216HW,2013-06-29 10:51:00,
2013-06-29 03:56:00,61.2,-26.8,30.17,WSW,248,0.0,1.1,1,0.00,,,0.00,WUHU216HW,2013-06-29 10:56:00,
2013-06-29 03:57:00,61.2,-26.8,30.17,WSW,248,0.0,1.1,1,0.00,,,0.00,WUHU216HW,2013-06-29 10:57:00,
2013-06-29 04:02:00,61.2,-26.8,30.17,West,270,0.9,1.1,1,0.00,,,0.00,WUHU216HW,2013-06-29 11:02:00,
2013-06-29 04:07:00,61.0,-26.9,30.17,West,270,0.4,1.1,1,0.00,,,0.00,WUHU216HW,2013-06-29 11:07:00,
2013-06-29 04:12:00,61.0,-26.9,30.17,West,270,0.0,0.9,1,0.00,,,0.00,WUHU216HW,2013-06-29 11:12:00,
2013-06-29 04:17:00,60.8,-27.1,30.17,SSW,203,1.1,1.1,1,0.00,,,0.00,WUHU216HW,2013-06-29 11:17:00,
2013-06-29 04:23:00,60.8,-27.1,30.17,South,180,0.4,1.3,1,0.00,,,0.00,WUHU216HW,2013-06-29 11:23:00,
2013-06-29 04:28:00,60.8,-27.1,30.17,South,180,0.0,1.3,1,0.00,,,0.00,WUHU216HW,2013-06-29 11:28:00,
2013-06-29 04:33:00,60.7,-27.1,30.16,South,180,0.9,0.9,1,0.00,,,0.00,WUHU216HW,2013-06-29 11:33:00,
2013-06-29 04:38:00,60.5,-27.3,30.17,South,180,0.7,1.1,1,0.00,,,0.00,WUHU216HW,2013-06-29 11:38:00,
2013-06-29 04:43:00,60.5,-27.3,30.18,West,270,1.3,1.3,1,0.00,,,0.00,WUHU216HW,2013-06-29 11:43:00,
2013-06-29 04:48:00,60.5,-27.3,30.18,SW,225,0.0,1.3,1,0.00,,,0.00,WUHU216HW,2013-06-29 11:48:00,
2013-06-29 04:53:00,60.5,-27.3,30.17,SW,225,0.4,1.1,1,0.00,,,0.00,WUHU216HW,2013-06-29 11:53:00,
2013-06-29 04:58:00,60.5,-27.3,30.18,South,180,0.2,0.7,1,0.00,,,0.00,WUHU216HW,2013-06-29 11:58:00,
2013-06-29 05:03:00,60.5,-27.3,30.17,SSE,158,0.2,0.7,1,0.00,,,0.00,WUHU216HW,2013-06-29 12:03:00,
2013-06-29 05:08:00,60.5,-27.3,30.17,East,90,1.1,1.1,1,0.00,,,0.00,WUHU216HW,2013-06-29 12:08:00,
2013-06-29 05:13:00,60.5,-27.3,30.17,East,90,0.0,1.1,1,0.00,,,0.00,WUHU216HW,2013-06-29 12:13:00,
2013-06-29 05:19:00,60.5,-27.3,30.17,East,90,0.7,1.1,1,0.00,,,0.00,WUHU216HW,2013-06-29 12:19:00,
2013-06-29 05:24:00,60.5,-27.3,30.16,East,90,1.3,1.3,1,0.00,,,0.00,WUHU216HW,2013-06-29 12:24:00,
2013-06-29 05:29:00,60.5,-27.3,30.16,ENE,68,0.0,1.3,1,0.00,,,0.00,WUHU216HW,2013-06-29 12:29:00,
2013-06-29 05:34:00,60.5,-27.3,30.16,NE,45,1.1,3.4,1,0.00,,,0.00,WUHU216HW,2013-06-29 12:34:00,
2013-06-29 05:39:00,60.7,-27.1,30.15,NNE,23,3.1,3.4,1,0.00,,,0.00,WUHU216HW,2013-06-29 12:39:00,
2013-06-29 05:44:00,60.7,-27.1,30.15,NE,45,4.0,4.7,1,0.00,,,0.00,WUHU216HW,2013-06-29 12:44:00,
2013-06-29 05:49:00,60.8,-27.1,30.15,NE,45,2.5,4.7,1,0.00,,,0.00,WUHU216HW,2013-06-29 12:49:00,
2013-06-29 05:54:00,60.8,-27.1,30.16,NNE,23,0.4,2.5,1,0.00,,,0.00,WUHU216HW,2013-06-29 12:54:00,
2013-06-29 05:59:00,60.8,-27.1,30.15,NNE,23,1.8,2.5,1,0.00,,,0.00,WUHU216HW,2013-06-29 12:59:00,
2013-06-29 06:04:00,60.8,-27.1,30.15,NNE,23,1.6,2.9,1,0.00,,,0.00,WUHU216HW,2013-06-29 13:04:00,
2013-06-29 06:09:00,60.8,-27.1,30.16,NNE,23,0.7,2.9,1,0.00,,,0.00,WUHU216HW,2013-06-29 13:09:00,
2013-06-29 06:15:00,60.8,-27.1,30.16,NNE,23,0.2,1.1,1,0.00,,,0.00,WUHU216HW,2013-06-29 13:15:00,
2013-06-29 06:20:00,60.7,-27.1,30.16,NNE,23,0.0,0.2,1,0.00,,,0.00,WUHU216HW,2013-06-29 13:20:00,
2013-06-29 06:25:00,60.7,-27.1,30.16,NNE,23,0.0,0.0,1,0.00,,,0.00,WUHU216HW,2013-06-29 13:25:00,
2013-06-29 06:30:00,60.7,-27.1,30.15,NNE,23,1.1,1.1,1,0.00,,,0.00,WUHU216HW,2013-06-29 13:30:00,
2013-06-29 06:35:00,60.8,-27.1,30.15,NNE,23,0.7,1.1,1,0.00,,,0.00,WUHU216HW,2013-06-29 13:35:00,
2013-06-29 06:40:00,60.8,-27.1,30.16,North,0,0.7,1.1,1,0.00,,,0.00,WUHU216HW,2013-06-29 13:40:00,
2013-06-29 06:45:00,61.0,-26.9,30.16,North,0,0.2,1.1,1,0.00,,,0.00,WUHU216HW,2013-06-29 13:45:00,
2013-06-29 06:50:00,61.2,-26.8,30.16,North,0,0.0,0.4,1,0.00,,,0.00,WUHU216HW,2013-06-29 13:50:00,
2013-06-29 06:55:00,61.6,-26.5,30.16,South,180,0.9,1.8,1,0.00,,,0.00,WUHU216HW,2013-06-29 13:55:00,
2013-06-29 07:00:00,61.7,-26.5,30.16,South,180,1.1,1.8,1,0.00,,,0.00,WUHU216HW,2013-06-29 14:00:00,
2013-06-29 07:05:00,61.9,-26.3,30.17,SSW,203,1.3,1.3,1,0.00,,,0.00,WUHU216HW,2013-06-29 14:05:00,
2013-06-29 07:10:00,62.1,-26.2,30.17,South,180,1.8,1.8,1,0.00,,,0.00,WUHU216HW,2013-06-29 14:10:00,
2013-06-29 07:16:00,62.3,-26.1,30.17,SSW,203,1.1,2.2,1,0.00,,,0.00,WUHU216HW,2013-06-29 14:16:00,
2013-06-29 07:21:00,63.9,-25.1,30.17,SSW,203,1.6,1.8,1,0.00,,,0.00,WUHU216HW,2013-06-29 14:21:00,
2013-06-29 07:26:00,65.7,-23.9,30.17,SSE,158,2.7,2.7,1,0.00,,,0.00,WUHU216HW,2013-06-29 14:26:00,
2013-06-29 07:31:00,67.9,-22.5,30.17,WSW,248,1.6,3.1,1,0.00,,,0.00,WUHU216HW,2013-06-29 14:31:00,
2013-06-29 07:36:00,69.5,-21.4,30.16,South,180,3.6,3.6,1,0.00,,,0.00,WUHU216HW,2013-06-29 14:36:00,
2013-06-29 07:41:00,70.0,-21.1,30.17,South,180,2.2,3.6,1,0.00,,,0.00,WUHU216HW,2013-06-29 14:41:00,
2013-06-29 07:46:00,70.2,-21.0,30.16,SW,225,2.2,4.7,1,0.00,,,0.00,WUHU216HW,2013-06-29 14:46:00,
2013-06-29 07:51:00,69.5,-21.4,30.17,SSW,203,0.4,4.7,1,0.00,,,0.00,WUHU216HW,2013-06-29 14:51:00,
2013-06-29 07:56:00,69.1,-21.7,30.17,SSE,158,3.4,3.4,1,0.00,,,0.00,WUHU216HW,2013-06-29 14:56:00,
2013-06-29 08:01:00,68.9,-21.8,30.16,SSE,158,1.6,3.4,1,0.00,,,0.00,WUHU216HW,2013-06-29 15:01:00,
2013-06-29 08:06:00,68.9,-21.8,30.16,WSW,248,0.2,3.4,1,0.00,,,0.00,WUHU216HW,2013-06-29 15:06:00,
2013-06-29 08:11:00,71.1,-20.4,30.16,SSE,158,0.9,1.8,1,0.00,,,0.00,WUHU216HW,2013-06-29 15:11:00,
2013-06-29 08:16:00,75.2,-17.8,30.16,SSW,203,2.0,3.8,1,0.00,,,0.00,WUHU216HW,2013-06-29 15:16:00,
2013-06-29 08:21:00,78.8,-15.5,30.16,SSW,203,0.4,3.8,1,0.00,,,0.00,WUHU216HW,2013-06-29 15:21:00,
2013-06-29 08:26:00,80.5,-14.4,30.16,SE,135,0.2,1.3,1,0.00,,,0.00,WUHU216HW,2013-06-29 15:26:00,
2013-06-29 08:31:00,79.9,14.0,30.16,SSE,158,1.3,2.2,8,0.00,,,0.00,WUHU216HW,2013-06-29 15:31:00,
2013-06-29 08:37:00,79.0,24.9,30.16,SW,225,0.2,2.2,14,0.00,,,0.00,WUHU216HW,2013-06-29 15:37:00,
2013-06-29 08:42:00,77.8,29.0,30.16,SW,225,0.7,1.1,17,0.00,,,0.00,WUHU216HW,2013-06-29 15:42:00,
2013-06-29 08:47:00,76.7,29.6,30.16,NW,315,0.4,0.9,18,0.00,,,0.00,WUHU216HW,2013-06-29 15:47:00,
2013-06-29 08:52:00,76.0,29.1,30.16,WSW,248,1.1,1.1,18,0.00,,,0.00,WUHU216HW,2013-06-29 15:52:00,
2013-06-29 08:57:00,75.4,25.5,30.16,West,270,0.7,2.2,16,0.00,,,0.00,WUHU216HW,2013-06-29 15:57:00,
2013-06-29 09:02:00,74.3,30.4,30.16,NNE,23,0.9,3.4,20,0.00,,,0.00,WUHU216HW,2013-06-29 16:02:00,
2013-06-29 09:07:00,73.6,32.3,30.15,WNW,293,1.6,3.4,22,0.00,,,0.00,WUHU216HW,2013-06-29 16:07:00,
2013-06-29 09:12:00,73.1,25.2,30.15,NNE,23,0.2,2.7,17,0.00,,,0.00,WUHU216HW,2013-06-29 16:12:00,
2013-06-29 09:17:00,73.1,18.3,30.15,West,270,1.3,1.6,13,0.00,,,0.00,WUHU216HW,2013-06-29 16:17:00,
2013-06-29 09:22:00,72.9,16.1,30.16,SSW,203,0.7,1.3,12,0.00,,,0.00,WUHU216HW,2013-06-29 16:22:00,
2013-06-29 09:23:00,73.1,14.0,30.16,WSW,248,0.4,1.3,10,0.00,,,0.00,WUHU216HW,2013-06-29 16:23:00,
2013-06-29 09:28:00,73.1,8.9,30.16,SSW,203,0.4,1.8,8,0.00,,,0.00,WUHU216HW,2013-06-29 16:28:00,
2013-06-29 09:33:00,73.4,9.1,30.16,SW,225,3.1,3.1,8,0.00,,,0.00,WUHU216HW,2013-06-29 16:33:00,
2013-06-29 09:39:00,73.4,6.2,30.16,South,180,2.0,3.1,7,0.00,,,0.00,WUHU216HW,2013-06-29 16:39:00,
2013-06-29 09:44:00,73.6,6.3,30.15,SSW,203,1.6,3.1,7,0.00,,,0.00,WUHU216HW,2013-06-29 16:44:00,
2013-06-29 09:49:00,73.8,6.5,30.16,SSW,203,0.4,1.8,7,0.00,,,0.00,WUHU216HW,2013-06-29 16:49:00,
2013-06-29 09:54:00,73.8,16.8,30.15,North,0,1.1,1.6,12,0.00,,,0.00,WUHU216HW,2013-06-29 16:54:00,
2013-06-29 09:59:00,73.8,30.0,30.15,NNE,23,2.0,2.9,20,0.00,,,0.00,WUHU216HW,2013-06-29 16:59:00,
2013-06-29 10:04:00,73.8,27.3,30.15,ESE,113,2.9,2.9,18,0.00,,,0.00,WUHU216HW,2013-06-29 17:04:00,
2013-06-29 10:09:00,74.0,20.9,30.15,SE,135,2.9,4.0,14,0.00,,,0.00,WUHU216HW,2013-06-29 17:09:00,
2013-06-29 10:14:00,74.3,17.2,30.15,South,180,1.8,4.0,12,0.00,,,0.00,WUHU216HW,2013-06-29 17:14:00,
2013-06-29 10:19:00,74.5,17.3,30.15,SSE,158,0.7,2.9,12,0.00,,,0.00,WUHU216HW,2013-06-29 17:19:00,
2013-06-29 10:24:00,74.9,17.6,30.15,SSE,158,3.1,3.6,12,0.00,,,0.00,WUHU216HW,2013-06-29 17:24:00,
2013-06-29 10:29:00,75.2,15.6,30.15,WSW,248,3.4,5.1,10,0.00,,,0.00,WUHU216HW,2013-06-29 17:29:00,
2013-06-29 10:34:00,75.4,15.8,30.15,SSE,158,2.7,5.1,10,0.00,,,0.00,WUHU216HW,2013-06-29 17:34:00,
2013-06-29 10:39:00,75.6,15.9,30.15,SSW,203,3.4,4.7,10,0.00,,,0.00,WUHU216HW,2013-06-29 17:39:00,
2013-06-29 10:45:00,75.6,28.7,30.15,SSE,158,1.3,4.7,18,0.00,,,0.00,WUHU216HW,2013-06-29 17:45:00,
2013-06-29 10:50:00,75.8,22.4,30.15,SE,135,0.2,4.5,14,0.00,,,0.00,WUHU216HW,2013-06-29 17:50:00,
2013-06-29 10:55:00,76.1,20.7,30.15,South,180,5.1,6.3,13,0.00,,,0.00,WUHU216HW,2013-06-29 17:55:00,
2013-06-29 11:00:00,76.5,18.9,30.15,SSE,158,6.0,6.3,12,0.00,,,0.00,WUHU216HW,2013-06-29 18:00:00,
2013-06-29 11:05:00,76.9,26.7,30.15,WSW,248,1.8,6.3,16,0.00,,,0.00,WUHU216HW,2013-06-29 18:05:00,
2013-06-29 11:10:00,77.0,28.4,30.15,South,180,4.0,6.0,17,0.00,,,0.00,WUHU216HW,2013-06-29 18:10:00,
2013-06-29 11:15:00,77.4,36.6,30.15,SW,225,0.4,4.0,23,0.00,,,0.00,WUHU216HW,2013-06-29 18:15:00,
2013-06-29 11:20:00,77.6,36.8,30.15,NNE,23,1.1,4.0,23,0.00,,,0.00,WUHU216HW,2013-06-29 18:20:00,
2013-06-29 11:25:00,77.9,40.3,30.15,WNW,293,1.8,1.8,26,0.00,,,0.00,WUHU216HW,2013-06-29 18:25:00,
2013-06-29 11:30:00,78.5,32.5,30.15,SW,225,1.8,3.1,19,0.00,,,0.00,WUHU216HW,2013-06-29 18:30:00,
2013-06-29 11:35:00,79.2,33.1,30.15,SW,225,2.7,4.0,19,0.00,,,0.00,WUHU216HW,2013-06-29 18:35:00,
2013-06-29 11:41:00,79.4,34.6,30.15,SSE,158,4.0,4.0,20,0.00,,,0.00,WUHU216HW,2013-06-29 18:41:00,
2013-06-29 11:46:00,79.9,32.3,30.15,SW,225,0.9,4.0,18,0.00,,,0.00,WUHU216HW,2013-06-29 18:46:00,
2013-06-29 11:51:00,80.3,39.0,30.15,NW,315,3.6,6.3,23,0.00,,,0.00,WUHU216HW,2013-06-29 18:51:00,
2013-06-29 11:56:00,80.8,41.7,30.16,WSW,248,4.0,6.3,25,0.00,,,0.00,WUHU216HW,2013-06-29 18:56:00,
2013-06-29 12:01:00,81.0,42.9,30.16,SSW,203,4.7,4.7,26,0.00,,,0.00,WUHU216HW,2013-06-29 19:01:00,
2013-06-29 12:06:00,81.4,41.1,30.16,SW,225,7.4,7.4,24,0.00,,,0.00,WUHU216HW,2013-06-29 19:06:00,
2013-06-29 12:11:00,81.4,44.3,30.16,WNW,293,2.5,7.4,27,0.00,,,0.00,WUHU216HW,2013-06-29 19:11:00,
2013-06-29 12:16:00,81.2,51.2,30.15,West,270,1.3,7.4,36,0.00,,,0.00,WUHU216HW,2013-06-29 19:16:00,
2013-06-29 12:21:00,81.2,49.6,30.15,SE,135,1.3,2.5,33,0.00,,,0.00,WUHU216HW,2013-06-29 19:21:00,
2013-06-29 12:26:00,81.2,46.9,30.15,SW,225,3.8,3.8,30,0.00,,,0.00,WUHU216HW,2013-06-29 19:26:00,
2013-06-29 12:31:00,81.2,46.9,30.15,West,270,1.1,3.8,30,0.00,,,0.00,WUHU216HW,2013-06-29 19:31:00,
2013-06-29 12:36:00,81.2,47.8,30.15,WSW,248,0.2,3.8,31,0.00,,,0.00,WUHU216HW,2013-06-29 19:36:00,
2013-06-29 12:41:00,81.2,47.8,30.15,WNW,293,3.8,4.3,31,0.00,,,0.00,WUHU216HW,2013-06-29 19:41:00,
2013-06-29 12:47:00,81.0,49.4,30.15,NNW,338,0.9,4.3,33,0.00,,,0.00,WUHU216HW,2013-06-29 19:47:00,
2013-06-29 12:52:00,81.0,46.8,30.15,West,270,2.2,3.8,30,0.00,,,0.00,WUHU216HW,2013-06-29 19:52:00,
2013-06-29 12:57:00,81.2,46.0,30.15,SW,225,5.4,5.4,29,0.00,,,0.00,WUHU216HW,2013-06-29 19:57:00,
2013-06-29 13:02:00,81.7,44.5,30.15,NW,315,2.5,6.5,27,0.00,,,0.00,WUHU216HW,2013-06-29 20:02:00,
2013-06-29 13:07:00,82.3,45.0,30.15,SSW,203,4.0,6.9,27,0.00,,,0.00,WUHU216HW,2013-06-29 20:07:00,
2013-06-29 13:12:00,82.8,47.4,30.14,WSW,248,3.8,6.9,29,0.00,,,0.00,WUHU216HW,2013-06-29 20:12:00,
2013-06-29 13:17:00,83.2,47.7,30.14,South,180,5.1,5.4,29,0.00,,,0.00,WUHU216HW,2013-06-29 20:17:00,
2013-06-29 13:22:00,83.3,48.8,30.15,SSW,203,2.5,6.3,30,0.00,,,0.00,WUHU216HW,2013-06-29 20:22:00,
2013-06-29 13:27:00,83.7,51.8,30.15,South,180,5.6,6.5,33,0.00,,,0.00,WUHU216HW,2013-06-29 20:27:00,
2013-06-29 13:32:00,83.7,52.6,30.15,SSW,203,5.4,7.4,35,0.00,,,0.00,WUHU216HW,2013-06-29 20:32:00,
2013-06-29 13:37:00,84.1,51.3,30.15,South,180,7.2,8.1,32,0.00,,,0.00,WUHU216HW,2013-06-29 20:37:00,
2013-06-29 13:42:00,84.6,51.7,30.15,SW,225,4.7,8.1,32,0.00,,,0.00,WUHU216HW,2013-06-29 20:42:00,
2013-06-29 13:48:00,85.0,53.8,30.15,SSW,203,11.4,11.4,35,0.00,,,0.00,WUHU216HW,2013-06-29 20:48:00,
2013-06-29 13:53:00,84.8,54.4,30.14,SSE,158,3.6,11.4,36,0.00,,,0.00,WUHU216HW,2013-06-29 20:53:00,
2013-06-29 13:58:00,84.2,53.9,30.15,SW,225,6.0,11.4,36,0.00,,,0.00,WUHU216HW,2013-06-29 20:58:00,
2013-06-29 14:03:00,83.5,53.3,30.15,SW,225,5.4,8.5,36,0.00,,,0.00,WUHU216HW,2013-06-29 21:03:00,
2013-06-29 14:08:00,83.0,50.3,30.14,SW,225,6.7,8.9,32,0.00,,,0.00,WUHU216HW,2013-06-29 21:08:00,
2013-06-29 14:13:00,82.8,49.2,30.14,South,180,6.3,8.9,31,0.00,,,0.00,WUHU216HW,2013-06-29 21:13:00,
2013-06-29 14:18:00,82.6,48.2,30.14,SSW,203,4.5,7.6,30,0.00,,,0.00,WUHU216HW,2013-06-29 21:18:00,
2013-06-29 14:23:00,82.6,48.2,30.14,South,180,5.6,7.4,30,0.00,,,0.00,WUHU216HW,2013-06-29 21:23:00,
2013-06-29 14:28:00,82.6,48.2,30.14,South,180,5.6,6.9,30,0.00,,,0.00,WUHU216HW,2013-06-29 21:28:00,
2013-06-29 14:33:00,82.6,48.2,30.13,South,180,5.6,5.6,30,0.00,,,0.00,WUHU216HW,2013-06-29 21:33:00,
2013-06-29 14:38:00,82.6,48.2,30.13,South,180,5.6,5.6,30,0.00,,,0.00,WUHU216HW,2013-06-29 21:38:00,
2013-06-29 14:43:00,82.6,47.2,30.13,SSE,158,6.3,6.3,29,0.00,,,0.00,WUHU216HW,2013-06-29 21:43:00,
2013-06-29 14:49:00,82.8,45.5,30.13,SSW,203,6.9,9.8,27,0.00,,,0.00,WUHU216HW,2013-06-29 21:49:00,
2013-06-29 14:54:00,82.6,48.2,30.13,WSW,248,4.3,9.8,30,0.00,,,0.00,WUHU216HW,2013-06-29 21:54:00,
2013-06-29 14:59:00,82.8,49.2,30.12,WNW,293,6.7,7.6,31,0.00,,,0.00,WUHU216HW,2013-06-29 21:59:00,
2013-06-29 15:04:00,82.6,50.8,30.12,South,180,8.1,8.1,33,0.00,,,0.00,WUHU216HW,2013-06-29 22:04:00,
2013-06-29 15:09:00,82.6,51.6,30.12,SW,225,6.3,8.1,35,0.00,,,0.00,WUHU216HW,2013-06-29 22:09:00,
2013-06-29 15:14:00,82.6,52.5,30.12,SSW,203,5.8,6.7,36,0.00,,,0.00,WUHU216HW,2013-06-29 22:14:00,
2013-06-29 15:19:00,82.6,53.3,30.12,SSW,203,6.3,8.3,37,0.00,,,0.00,WUHU216HW,2013-06-29 22:19:00,
2013-06-29 15:24:00,82.8,55.0,30.12,SSW,203,4.3,8.3,39,0.00,,,0.00,WUHU216HW,2013-06-29 22:24:00,
2013-06-29 15:29:00,83.0,55.2,30.12,WNW,293,3.6,6.3,39,0.00,,,0.00,WUHU216HW,2013-06-29 22:29:00,
2013-06-29 15:34:00,83.0,55.9,30.12,SSW,203,5.4,6.3,40,0.00,,,0.00,WUHU216HW,2013-06-29 22:34:00,
2013-06-29 15:39:00,83.0,55.2,30.12,SSW,203,4.0,7.2,39,0.00,,,0.00,WUHU216HW,2013-06-29 22:39:00,
2013-06-29 15:45:00,83.2,55.4,30.12,SW,225,3.4,8.9,39,0.00,,,0.00,WUHU216HW,2013-06-29 22:45:00,
2013-06-29 15:50:00,83.2,53.0,30.11,SSW,203,3.1,8.9,36,0.00,,,0.00,WUHU216HW,2013-06-29 22:50:00,
2013-06-29 15:55:00,83.2,53.0,30.12,SSW,203,6.3,10.1,36,0.00,,,0.00,WUHU216HW,2013-06-29 22:55:00,
2013-06-29 16:00:00,83.3,53.9,30.11,SW,225,4.9,10.1,37,0.00,,,0.00,WUHU216HW,2013-06-29 23:00:00,
2013-06-29 16:05:00,83.3,53.9,30.11,SSW,203,7.2,7.2,37,0.00,,,0.00,WUHU216HW,2013-06-29 23:05:00,
2013-06-29 16:10:00,83.3,53.9,30.11,WSW,248,5.6,7.2,37,0.00,,,0.00,WUHU216HW,2013-06-29 23:10:00,
2013-06-29 16:15:00,83.5,55.6,30.11,SSW,203,6.3,7.2,39,0.00,,,0.00,WUHU216HW,2013-06-29 23:15:00,
2013-06-29 16:20:00,83.5,57.1,30.11,South,180,1.8,6.5,41,0.00,,,0.00,WUHU216HW,2013-06-29 23:20:00,
2013-06-29 16:25:00,83.5,57.8,30.11,West,270,3.4,6.5,42,0.00,,,0.00,WUHU216HW,2013-06-29 23:25:00,
2013-06-29 16:30:00,83.5,57.1,30.11,SSE,158,3.4,5.8,41,0.00,,,0.00,WUHU216HW,2013-06-29 23:30:00,
2013-06-29 16:35:00,83.5,57.1,30.11,SW,225,3.6,4.0,41,0.00,,,0.00,WUHU216HW,2013-06-29 23:35:00,
2013-06-29 16:41:00,83.5,57.8,30.11,WNW,293,4.7,5.8,42,0.00,,,0.00,WUHU216HW,2013-06-29 23:41:00,
2013-06-29 16:46:00,83.7,58.0,30.11,SW,225,5.4,5.8,42,0.00,,,0.00,WUHU216HW,2013-06-29 23:46:00,
2013-06-29 16:51:00,83.9,58.2,30.11,SSW,203,2.7,8.1,42,0.00,,,0.00,WUHU216HW,2013-06-29 23:51:00,
2013-06-29 16:56:00,83.9,59.6,30.11,SSW,203,5.8,9.2,44,0.00,,,0.00,WUHU216HW,2013-06-29 23:56:00,
2013-06-29 17:01:00,84.1,60.5,30.11,SSW,203,2.5,9.2,45,0.00,,,0.00,WUHU216HW,2013-06-30 00:01:00,
2013-06-29 17:06:00,84.2,61.2,30.11,SSW,203,5.4,7.4,46,0.00,,,0.00,WUHU216HW,2013-06-30 00:06:00,
2013-06-29 17:11:00,84.2,61.2,30.10,SW,225,2.5,6.0,46,0.00,,,0.00,WUHU216HW,2013-06-30 00:11:00,
2013-06-29 17:16:00,84.2,62.5,30.10,SW,225,2.0,6.0,48,0.00,,,0.00,WUHU216HW,2013-06-30 00:16:00,
2013-06-29 17:21:00,84.4,62.7,30.09,SW,225,3.8,4.7,48,0.00,,,0.00,WUHU216HW,2013-06-30 00:21:00,
2013-06-29 17:26:00,84.4,62.7,30.09,SSW,203,4.7,4.7,48,0.00,,,0.00,WUHU216HW,2013-06-30 00:26:00,
2013-06-29 17:31:00,84.4,62.7,30.09,WSW,248,3.4,5.8,48,0.00,,,0.00,WUHU216HW,2013-06-30 00:31:00,
2013-06-29 17:36:00,84.6,62.3,30.09,WSW,248,6.0,6.0,47,0.00,,,0.00,WUHU216HW,2013-06-30 00:36:00,
2013-06-29 17:41:00,84.8,62.4,30.09,West,270,3.4,6.0,47,0.00,,,0.00,WUHU216HW,2013-06-30 00:41:00,
2013-06-29 17:46:00,84.8,62.4,30.09,SW,225,3.6,6.0,47,0.00,,,0.00,WUHU216HW,2013-06-30 00:46:00,
2013-06-29 17:51:00,85.0,63.3,30.09,SSW,203,4.7,6.0,48,0.00,,,0.00,WUHU216HW,2013-06-30 00:51:00,
2013-06-29 17:57:00,85.0,63.3,30.09,South,180,5.6,6.9,48,0.00,,,0.00,WUHU216HW,2013-06-30 00:57:00,
2013-06-29 18:02:00,84.8,63.7,30.09,SW,225,3.8,7.6,49,0.00,,,0.00,WUHU216HW,2013-06-30 01:02:00,
2013-06-29 18:07:00,84.6,63.5,30.09,South,180,5.8,7.6,49,0.00,,,0.00,WUHU216HW,2013-06-30 01:07:00,
2013-06-29 18:12:00,84.6,64.8,30.09,SW,225,5.4,6.0,51,0.00,,,0.00,WUHU216HW,2013-06-30 01:12:00,
2013-06-29 18:17:00,84.6,64.8,30.09,SW,225,3.4,6.0,51,0.00,,,0.00,WUHU216HW,2013-06-30 01:17:00,
2013-06-29 18:22:00,84.4,64.0,30.09,SW,225,3.4,5.8,50,0.00,,,0.00,WUHU216HW,2013-06-30 01:22:00,
2013-06-29 18:27:00,84.4,64.6,30.09,SSW,203,5.6,5.8,51,0.00,,,0.00,WUHU216HW,2013-06-30 01:27:00,
2013-06-29 18:32:00,84.1,64.3,30.09,SW,225,1.1,5.6,51,0.00,,,0.00,WUHU216HW,2013-06-30 01:32:00,
2013-06-29 18:37:00,83.5,63.7,30.09,SW,225,2.0,5.6,51,0.00,,,0.00,WUHU216HW,2013-06-30 01:37:00,
2013-06-29 18:42:00,83.2,63.5,30.09,SW,225,4.0,6.0,51,0.00,,,0.00,WUHU216HW,2013-06-30 01:42:00,
2013-06-29 18:48:00,82.8,63.1,30.09,SSW,203,2.7,6.0,51,0.00,,,0.00,WUHU216HW,2013-06-30 01:48:00,
2013-06-29 18:53:00,82.4,62.7,30.09,SW,225,2.5,5.6,51,0.00,,,0.00,WUHU216HW,2013-06-30 01:53:00,
2013-06-29 18:58:00,82.4,62.7,30.09,South,180,3.4,5.4,51,0.00,,,0.00,WUHU216HW,2013-06-30 01:58:00,
2013-06-29 19:03:00,82.4,62.7,30.08,SSW,203,4.5,5.4,51,0.00,,,0.00,WUHU216HW,2013-06-30 02:03:00,
2013-06-29 19:08:00,82.6,62.9,30.08,SW,225,3.6,5.4,51,0.00,,,0.00,WUHU216HW,2013-06-30 02:08:00,
2013-06-29 19:13:00,82.8,63.7,30.08,SSW,203,3.1,5.4,52,0.00,,,0.00,WUHU216HW,2013-06-30 02:13:00,
2013-06-29 19:18:00,83.0,63.3,30.08,SW,225,3.4,5.1,51,0.00,,,0.00,WUHU216HW,2013-06-30 02:18:00,
2013-06-29 19:23:00,83.0,63.9,30.08,South,180,5.1,5.1,52,0.00,,,0.00,WUHU216HW,2013-06-30 02:23:00,
2013-06-29 19:29:00,82.8,63.7,30.08,SW,225,3.1,6.9,52,0.00,,,0.00,WUHU216HW,2013-06-30 02:29:00,
2013-06-29 19:34:00,82.8,63.7,30.08,South,180,3.4,6.9,52,0.00,,,0.00,WUHU216HW,2013-06-30 02:34:00,
2013-06-29 19:39:00,82.6,63.5,30.08,SW,225,4.0,5.8,52,0.00,,,0.00,WUHU216HW,2013-06-30 02:39:00,
2013-06-29 19:44:00,82.4,62.7,30.08,SSW,203,5.4,5.4,51,0.00,,,0.00,WUHU216HW,2013-06-30 02:44:00,
2013-06-29 19:49:00,82.3,62.6,30.08,WSW,248,4.3,6.3,51,0.00,,,0.00,WUHU216HW,2013-06-30 02:49:00,
2013-06-29 19:54:00,81.7,62.1,30.08,WSW,248,5.6,6.9,51,0.00,,,0.00,WUHU216HW,2013-06-30 02:54:00,
2013-06-29 19:59:00,81.4,61.2,30.08,SW,225,5.1,6.9,50,0.00,,,0.00,WUHU216HW,2013-06-30 02:59:00,
2013-06-29 20:04:00,81.0,60.8,30.08,SSW,203,4.0,7.2,50,0.00,,,0.00,WUHU216HW,2013-06-30 03:04:00,
2013-06-29 20:09:00,80.6,59.8,30.08,South,180,5.4,7.2,49,0.00,,,0.00,WUHU216HW,2013-06-30 03:09:00,
2013-06-29 20:14:00,80.1,58.8,30.08,SW,225,3.6,6.0,48,0.00,,,0.00,WUHU216HW,2013-06-30 03:14:00,
2013-06-29 20:20:00,79.6,58.3,30.08,SSW,203,2.5,6.0,48,0.00,,,0.00,WUHU216HW,2013-06-30 03:20:00,
2013-06-29 20:25:00,79.2,57.3,30.08,South,180,4.0,4.7,47,0.00,,,0.00,WUHU216HW,2013-06-30 03:25:00,
2013-06-29 20:30:00,79.0,56.5,30.08,SSW,203,5.4,5.4,46,0.00,,,0.00,WUHU216HW,2013-06-30 03:30:00,
2013-06-29 20:35:00,78.3,54.5,30.08,SSW,203,2.5,5.4,44,0.00,,,0.00,WUHU216HW,2013-06-30 03:35:00,
2013-06-29 20:40:00,77.9,53.5,30.08,South,180,3.8,5.4,43,0.00,,,0.00,WUHU216HW,2013-06-30 03:40:00,
2013-06-29 20:45:00,77.4,51.6,30.08,SSW,203,2.7,4.5,41,0.00,,,0.00,WUHU216HW,2013-06-30 03:45:00,
2013-06-29 20:50:00,77.0,50.5,30.08,SSW,203,1.3,4.5,40,0.00,,,0.00,WUHU216HW,2013-06-30 03:50:00,
2013-06-29 20:55:00,76.9,50.4,30.08,SW,225,2.9,4.0,40,0.00,,,0.00,WUHU216HW,2013-06-30 03:55:00,
2013-06-29 21:00:00,76.3,47.7,30.08,South,180,3.1,3.1,37,0.00,,,0.00,WUHU216HW,2013-06-30 04:00:00,
2013-06-29 21:01:00,76.3,47.7,30.08,South,180,1.6,3.1,37,0.00,,,0.00,WUHU216HW,2013-06-30 04:01:00,
2013-06-29 21:02:00,76.1,46.7,30.08,SW,225,2.5,3.1,36,0.00,,,0.00,WUHU216HW,2013-06-30 04:02:00,
2013-06-29 21:07:00,76.0,45.8,30.08,South,180,5.8,5.8,35,0.00,,,0.00,WUHU216HW,2013-06-30 04:07:00,
2013-06-29 21:12:00,75.4,44.5,30.09,SSW,203,3.1,5.8,33,0.00,,,0.00,WUHU216HW,2013-06-30 04:12:00,
2013-06-29 21:17:00,75.1,43.4,30.09,SW,225,4.3,5.8,32,0.00,,,0.00,WUHU216HW,2013-06-30 04:17:00,
2013-06-29 21:22:00,74.5,42.0,30.09,SW,225,1.1,5.4,31,0.00,,,0.00,WUHU216HW,2013-06-30 04:22:00,
2013-06-29 21:27:00,74.3,40.9,30.09,SW,225,1.8,5.4,30,0.00,,,0.00,WUHU216HW,2013-06-30 04:27:00,
2013-06-29 21:32:00,73.8,39.6,30.09,SSW,203,2.0,4.7,29,0.00,,,0.00,WUHU216HW,2013-06-30 04:32:00,
2013-06-29 21:37:00,73.4,37.4,30.09,South,180,2.0,2.7,27,0.00,,,0.00,WUHU216HW,2013-06-30 04:37:00,
2013-06-29 21:42:00,73.1,35.1,30.09,SSW,203,1.3,4.0,25,0.00,,,0.00,WUHU216HW,2013-06-30 04:42:00,
2013-06-29 21:47:00,72.7,33.7,30.09,SSW,203,2.7,4.7,24,0.00,,,0.00,WUHU216HW,2013-06-30 04:47:00,
2013-06-29 21:53:00,72.5,32.5,30.09,WSW,248,3.4,5.6,23,0.00,,,0.00,WUHU216HW,2013-06-30 04:53:00,
2013-06-29 21:58:00,72.2,31.1,30.10,SSW,203,2.2,5.6,22,0.00,,,0.00,WUHU216HW,2013-06-30 04:58:00,
2013-06-29 22:03:00,72.0,28.5,30.10,SSW,203,3.4,4.0,20,0.00,,,0.00,WUHU216HW,2013-06-30 05:03:00,
2013-06-29 22:08:00,71.8,27.0,30.10,SW,225,3.4,3.4,19,0.00,,,0.00,WUHU216HW,2013-06-30 05:08:00,
2013-06-29 22:13:00,71.6,24.0,30.10,South,180,1.8,3.4,17,0.00,,,0.00,WUHU216HW,2013-06-30 05:13:00,
2013-06-29 22:18:00,71.5,23.9,30.10,SSW,203,1.1,2.7,17,0.00,,,0.00,WUHU216HW,2013-06-30 05:18:00,
2013-06-29 22:23:00,71.3,22.2,30.10,WSW,248,1.8,3.1,16,0.00,,,0.00,WUHU216HW,2013-06-30 05:23:00,
2013-06-29 22:28:00,70.9,21.9,30.10,SW,225,1.1,3.1,16,0.00,,,0.00,WUHU216HW,2013-06-30 05:28:00,
2013-06-29 22:33:00,70.7,18.3,30.10,South,180,0.4,2.7,14,0.00,,,0.00,WUHU216HW,2013-06-30 05:33:00,
2013-06-29 22:38:00,70.6,18.3,30.10,SSW,203,0.0,2.7,14,0.00,,,0.00,WUHU216HW,2013-06-30 05:38:00,
2013-06-29 22:43:00,70.2,17.9,30.11,SW,225,0.0,1.1,14,0.00,,,0.00,WUHU216HW,2013-06-30 05:43:00,
2013-06-29 22:48:00,69.8,15.7,30.10,North,0,1.1,1.1,13,0.00,,,0.00,WUHU216HW,2013-06-30 05:48:00,
2013-06-29 22:53:00,69.5,13.5,30.10,North,0,0.4,1.1,12,0.00,,,0.00,WUHU216HW,2013-06-30 05:53:00,
2013-06-29 22:59:00,69.5,13.5,30.10,NNW,338,0.0,1.1,12,0.00,,,0.00,WUHU216HW,2013-06-30 05:59:00,
2013-06-29 23:04:00,69.3,11.1,30.10,NNW,338,0.4,0.4,10,0.00,,,0.00,WUHU216HW,2013-06-30 06:04:00,
2013-06-29 23:09:00,68.9,5.8,30.10,NNW,338,0.7,0.7,8,0.00,,,0.00,WUHU216HW,2013-06-30 06:09:00,
2013-06-29 23:14:00,68.8,-0.3,30.10,NNW,338,1.1,1.1,6,0.00,,,0.00,WUHU216HW,2013-06-30 06:14:00,
2013-06-29 23:19:00,68.8,-3.8,30.10,North,0,1.1,1.8,5,0.00,,,0.00,WUHU216HW,2013-06-30 06:19:00,
2013-06-29 23:24:00,68.4,-4.1,30.10,North,0,1.6,1.8,5,0.00,,,0.00,WUHU216HW,2013-06-30 06:24:00,
2013-06-29 23:29:00,68.4,-4.1,30.10,North,0,0.9,1.6,5,0.00,,,0.00,WUHU216HW,2013-06-30 06:29:00,
2013-06-29 23:34:00,68.2,-12.3,30.09,North,0,0.9,1.6,3,0.00,,,0.00,WUHU216HW,2013-06-30 06:34:00,
2013-06-29 23:39:00,68.0,-12.5,30.09,North,0,0.4,1.1,3,0.00,,,0.00,WUHU216HW,2013-06-30 06:39:00,
2013-06-29 23:45:00,67.9,-12.5,30.09,North,0,0.4,1.1,3,0.00,,,0.00,WUHU216HW,2013-06-30 06:45:00,
2013-06-29 23:50:00,67.7,-17.4,30.10,North,0,0.4,1.1,2,0.00,,,0.00,WUHU216HW,2013-06-30 06:50:00,
2013-06-29 23:55:00,67.5,-22.7,30.10,NNW,338,0.7,1.1,1,0.00,,,0.00,WUHU216HW,2013-06-30 06:55:00,